| time (UTC) | temp F | wind direction | speed MPH | gust MPH | rain 1hr in | rain 24hr in | rain mn in | humidity % | barometer mb |
| 20260902234515 | 85 | 56 | 0.0 | 0.0 | 0.00 | 0.00 | 0.00 | 73 | 1011.8 |
| 20260902233043 | 86 | 79 | 0.0 | 0.0 | 0.00 | 0.00 | 0.00 | 71 | 1011.8 |
| 20260902231510 | 86 | 255 | 0.0 | 0.0 | 0.00 | 0.00 | 0.00 | 69 | 1011.9 |
| 20260902230040 | 87 | 127 | 0.0 | 0.0 | 0.00 | 0.00 | 0.00 | 67 | 1011.9 |
| 20260902224513 | 88 | 144 | 0.0 | 0.0 | 0.00 | 0.00 | 0.00 | 66 | 1011.9 |
| 20260902223030 | 88 | 79 | 0.0 | 0.0 | 0.00 | 0.00 | 0.00 | 64 | 1011.8 |
| 20260902221613 | 89 | 226 | 0.0 | 3.0 | 0.00 | 0.00 | 0.00 | 61 | 1011.9 |
| 20260902220023 | 90 | 238 | 0.0 | 3.0 | 0.00 | 0.00 | 0.00 | 61 | 1012.0 |
| 20260902214550 | 90 | 244 | 0.0 | 0.0 | 0.00 | 0.00 | 0.00 | 60 | 1012.0 |
| 20260902213018 | 91 | 263 | 0.0 | 3.0 | 0.00 | 0.00 | 0.00 | 58 | 1012.1 |
| 20260902211553 | 92 | 307 | 0.0 | 4.0 | 0.00 | 0.00 | 0.00 | 57 | 1012.2 |
| 20260902210010 | 93 | 57 | 0.0 | 3.0 | 0.00 | 0.00 | 0.00 | 55 | 1012.2 |
| 20260902204551 | 93 | 27 | 0.0 | 4.0 | 0.00 | 0.00 | 0.00 | 57 | 1012.4 |
| 20260902203002 | 94 | 125 | 0.0 | 5.0 | 0.00 | 0.00 | 0.00 | 54 | 1012.5 |
| 20260902201538 | 95 | 60 | 0.0 | 0.0 | 0.00 | 0.00 | 0.00 | 52 | 1012.6 |
| 20260902200101 | 94 | 72 | 0.0 | 1.0 | 0.00 | 0.00 | 0.00 | 52 | 1012.7 |
| 20260902194532 | 94 | 121 | 0.0 | 2.0 | 0.00 | 0.00 | 0.00 | 54 | 1012.8 |
| 20260902193048 | 95 | 238 | 0.0 | 3.0 | 0.00 | 0.00 | 0.00 | 51 | 1013.0 |
| 20260902191519 | 95 | 77 | 0.0 | 1.0 | 0.00 | 0.00 | 0.00 | 51 | 1013.1 |
| 20260902190043 | 96 | 38 | 0.0 | 0.0 | 0.00 | 0.00 | 0.00 | 51 | 1013.3 |
| 20260902184506 | 95 | 150 | 0.0 | 0.0 | 0.00 | 0.00 | 0.00 | 50 | 1013.3 |
| 20260902183041 | 94 | 56 | 0.0 | 4.0 | 0.00 | 0.00 | 0.00 | 50 | 1013.3 |
| 20260902181502 | 95 | 110 | 0.0 | 2.0 | 0.00 | 0.00 | 0.00 | 50 | 1013.5 |
| 20260902180028 | 94 | 68 | 0.0 | 3.0 | 0.00 | 0.00 | 0.00 | 52 | 1013.6 |
| 20260902174556 | 94 | 60 | 0.0 | 0.0 | 0.00 | 0.00 | 0.00 | 54 | 1013.7 |
| 20260902173032 | 93 | 147 | 0.0 | 1.0 | 0.00 | 0.00 | 0.00 | 51 | 1013.9 |
| 20260902171554 | 93 | 241 | 0.0 | 2.0 | 0.00 | 0.00 | 0.00 | 56 | 1013.9 |
| 20260902170013 | 92 | 61 | 0.0 | 3.0 | 0.00 | 0.00 | 0.00 | 54 | 1014.1 |
| 20260902164555 | 93 | 76 | 0.0 | 0.0 | 0.00 | 0.00 | 0.00 | 58 | 1014.3 |
| 20260902163002 | 91 | 264 | 0.0 | 3.0 | 0.00 | 0.00 | 0.00 | 58 | 1014.3 |
| 20260902161531 | 91 | 82 | 0.0 | 0.0 | 0.00 | 0.00 | 0.00 | 60 | 1014.5 |
| 20260902160100 | 90 | 65 | 0.0 | 4.0 | 0.00 | 0.00 | 0.00 | 59 | 1014.4 |
| 20260902154530 | 89 | 181 | 0.0 | 3.0 | 0.00 | 0.00 | 0.00 | 63 | 1014.4 |
| 20260902153046 | 88 | 217 | 0.0 | 2.0 | 0.00 | 0.00 | 0.00 | 64 | 1014.5 |
| 20260902151509 | 87 | 120 | 0.0 | 0.0 | 0.00 | 0.00 | 0.00 | 66 | 1014.6 |
| 20260902150035 | 85 | 167 | 0.0 | 3.0 | 0.00 | 0.01 | 0.00 | 68 | 1014.5 |
| 20260902144609 | 84 | 162 | 0.0 | 0.0 | 0.00 | 0.01 | 0.00 | 72 | 1014.4 |
| 20260902143025 | 83 | 113 | 0.0 | 0.0 | 0.00 | 0.01 | 0.00 | 74 | 1014.4 |
| 20260902141554 | 81 | 75 | 0.0 | 0.0 | 0.00 | 0.01 | 0.00 | 75 | 1014.2 |
| 20260902140015 | 80 | 75 | 0.0 | 0.0 | 0.00 | 0.01 | 0.00 | 78 | 1014.3 |
| 20260902134541 | 79 | 104 | 0.0 | 0.0 | 0.00 | 0.01 | 0.00 | 80 | 1014.3 |
| 20260902133006 | 78 | 114 | 0.0 | 0.0 | 0.00 | 0.01 | 0.00 | 82 | 1014.4 |
| 20260902131529 | 77 | 301 | 0.0 | 0.0 | 0.00 | 0.01 | 0.00 | 84 | 1014.5 |
| 20260902124521 | 75 | 27 | 0.0 | 0.0 | 0.00 | 0.01 | 0.00 | 89 | 1014.7 |
| 20260902123049 | 74 | 122 | 0.0 | 0.0 | 0.00 | 0.01 | 0.00 | 90 | 1014.6 |
| 20260902121515 | 73 | 260 | 0.0 | 0.0 | 0.00 | 0.01 | 0.00 | 92 | 1014.6 |
| 20260902120041 | 73 | 68 | 0.0 | 0.0 | 0.00 | 0.01 | 0.00 | 93 | 1014.6 |
| 20260902114512 | 72 | 127 | 0.0 | 0.0 | 0.00 | 0.01 | 0.00 | 93 | 1014.6 |
| 20260902113035 | 72 | 127 | 0.0 | 0.0 | 0.00 | 0.01 | 0.00 | 94 | 1014.5 |
| 20260902111502 | 72 | 241 | 0.0 | 0.0 | 0.00 | 0.01 | 0.00 | 94 | 1014.4 |
| 20260902110042 | 72 | 241 | 0.0 | 0.0 | 0.00 | 0.01 | 0.00 | 94 | 1014.6 |
| 20260902104600 | 72 | 241 | 0.0 | 0.0 | 0.00 | 0.01 | 0.00 | 94 | 1014.4 |
| 20260902103027 | 72 | 241 | 0.0 | 0.0 | 0.00 | 0.01 | 0.00 | 94 | 1014.2 |
| 20260902101549 | 72 | 241 | 0.0 | 0.0 | 0.00 | 0.01 | 0.00 | 94 | 1014.1 |
| 20260902100015 | 73 | 241 | 0.0 | 0.0 | 0.00 | 0.01 | 0.00 | 93 | 1014.2 |
| 20260902094542 | 73 | 241 | 0.0 | 0.0 | 0.00 | 0.01 | 0.00 | 93 | 1014.0 |
| 20260902093012 | 73 | 127 | 0.0 | 0.0 | 0.00 | 0.01 | 0.00 | 94 | 1014.0 |
| 20260902091535 | 73 | 72 | 0.0 | 0.0 | 0.00 | 0.01 | 0.00 | 94 | 1014.0 |
| 20260902090100 | 73 | 72 | 0.0 | 0.0 | 0.00 | 0.01 | 0.00 | 94 | 1013.9 |
| 20260902084525 | 73 | 70 | 0.0 | 0.0 | 0.00 | 0.01 | 0.00 | 93 | 1013.9 |
| 20260902083049 | 73 | 70 | 0.0 | 0.0 | 0.00 | 0.01 | 0.00 | 92 | 1013.9 |
| 20260902081512 | 74 | 70 | 0.0 | 0.0 | 0.00 | 0.01 | 0.00 | 91 | 1013.9 |
| 20260902080048 | 74 | 70 | 0.0 | 0.0 | 0.00 | 0.01 | 0.00 | 91 | 1013.9 |
| 20260902074504 | 75 | 96 | 0.0 | 0.0 | 0.00 | 0.01 | 0.00 | 90 | 1013.9 |
| 20260902073032 | 76 | 110 | 0.0 | 0.0 | 0.00 | 0.01 | 0.00 | 89 | 1013.7 |
| 20260902071557 | 76 | 72 | 0.0 | 0.0 | 0.00 | 0.01 | 0.00 | 89 | 1013.5 |
| 20260902070025 | 77 | 110 | 0.0 | 0.0 | 0.00 | 0.01 | 0.00 | 89 | 1013.5 |
| 20260902064553 | 77 | 167 | 0.0 | 0.0 | 0.00 | 0.01 | 0.00 | 90 | 1013.4 |
| 20260902063018 | 77 | 254 | 0.0 | 2.0 | 0.00 | 0.01 | 0.00 | 90 | 1013.4 |
| 20260902061545 | 77 | 233 | 0.0 | 0.0 | 0.00 | 0.01 | 0.00 | 91 | 1013.5 |
| 20260902060009 | 77 | 246 | 0.0 | 0.0 | 0.00 | 0.01 | 0.00 | 92 | 1013.6 |
| 20260902054535 | 76 | 142 | 0.0 | 0.0 | 0.00 | 0.01 | 0.00 | 93 | 1013.9 |
| 20260902053102 | 76 | 131 | 0.0 | 0.0 | 0.00 | 0.01 | 0.00 | 94 | 1013.9 |
| 20260902051528 | 76 | 124 | 0.0 | 0.0 | 0.00 | 0.01 | 0.00 | 94 | 1013.9 |
| 20260902050051 | 76 | 147 | 0.0 | 0.0 | 0.00 | 0.01 | 0.00 | 94 | 1013.9 |
| 20260902044511 | 76 | 179 | 0.0 | 0.0 | 0.00 | 0.01 | 0.00 | 94 | 1013.9 |
| 20260902043045 | 76 | 249 | 0.0 | 0.0 | 0.00 | 0.01 | 0.00 | 94 | 1013.8 |
| 20260902041505 | 76 | 283 | 0.0 | 0.0 | 0.00 | 0.01 | 0.00 | 94 | 1013.7 |
| 20260902040031 | 76 | 283 | 0.0 | 0.0 | 0.00 | 0.01 | 0.01 | 94 | 1013.9 |
| 20260902034600 | 76 | 283 | 0.0 | 0.0 | 0.00 | 0.01 | 0.01 | 94 | 1013.9 |
| 20260902033027 | 76 | 283 | 0.0 | 0.0 | 0.00 | 0.01 | 0.01 | 94 | 1013.9 |
| 20260902031555 | 76 | 283 | 0.0 | 0.0 | 0.00 | 0.01 | 0.01 | 94 | 1013.8 |
| 20260902030021 | 76 | 283 | 0.0 | 0.0 | 0.00 | 0.01 | 0.01 | 94 | 1013.6 |
| 20260902024550 | 76 | 283 | 0.0 | 0.0 | 0.00 | 0.01 | 0.01 | 94 | 1013.6 |
| 20260902023034 | 76 | 283 | 0.0 | 0.0 | 0.00 | 0.01 | 0.01 | 94 | 1013.6 |
| 20260902021549 | 76 | 283 | 0.0 | 0.0 | 0.00 | 0.01 | 0.01 | 94 | 1013.6 |
| 20260902020009 | 76 | 283 | 0.0 | 0.0 | 0.00 | 0.01 | 0.01 | 94 | 1013.8 |
| 20260902014541 | 77 | 283 | 0.0 | 0.0 | 0.00 | 0.01 | 0.01 | 93 | 1013.9 |
| 20260902013102 | 77 | 283 | 0.0 | 0.0 | 0.00 | 0.01 | 0.01 | 93 | 1013.9 |
| 20260902011525 | 78 | 283 | 0.0 | 0.0 | 0.00 | 0.01 | 0.01 | 92 | 1013.9 |
| 20260902010053 | 78 | 283 | 0.0 | 0.0 | 0.00 | 0.01 | 0.01 | 91 | 1013.8 |
| 20260902004519 | 79 | 283 | 0.0 | 0.0 | 0.00 | 0.01 | 0.01 | 90 | 1013.5 |
| 20260902003054 | 80 | 283 | 0.0 | 0.0 | 0.00 | 0.01 | 0.01 | 89 | 1013.4 |
| 20260902001513 | 80 | 283 | 0.0 | 0.0 | 0.00 | 0.01 | 0.01 | 88 | 1013.4 |
| 20260902000049 | 81 | 283 | 0.0 | 0.0 | 0.00 | 0.01 | 0.01 | 87 | 1013.6 |